Location: Budapest
(47.4979°N, 19.0402°E)
Time: 00:28:45
(UTC+01:00)

Vanguard 1 Rocket - All Passes

Search period start: 13 December 2017 00:00
Search period end: 23 December 2017 00:00
Orbit: 656 x 4222 km, 34.3° (Epoch: 11 December)

Date Brightness Start Highest point End Pass type
(mag) Time Alt. Az. Time Alt. Az. Time Alt. Az.
13 Dec - 01:10:00 10° W 01:21:47 16° SW 01:33:52 10° SSW night (unlit)
13 Dec - 16:34:58 10° SSW 16:44:08 37° SSE 17:00:06 10° E visible
13 Dec - 18:57:58 10° WSW 19:10:54 52° S 19:33:15 10° ESE visible
13 Dec - 21:23:32 10° W 21:40:08 45° SSW 22:03:29 10° SE visible
13 Dec - 23:53:10 10° W 00:09:05 25° SW 00:26:52 10° S visible
14 Dec - 15:26:09 10° S 15:33:14 25° SE 15:44:24 10° E daylight
14 Dec - 17:47:35 10° SW 17:58:24 48° SSE 18:17:59 10° E visible
14 Dec - 20:12:01 10° W 20:26:37 50° S 20:49:51 10° SE visible
14 Dec - 22:39:16 10° W 22:55:54 33° SSW 23:16:44 10° SSE visible
15 Dec - 01:19:01 10° WSW 01:23:35 11° SW 01:28:15 10° SW night (unlit)
15 Dec - 14:19:14 10° SSE 14:22:59 13° SE 14:27:38 10° ESE daylight
15 Dec - 16:37:45 10° SW 16:46:39 39° SSE 17:02:36 10° E visible
15 Dec - 19:01:04 10° WSW 19:13:33 51° S 19:35:18 10° ESE visible
15 Dec - 21:26:48 10° W 21:42:30 40° SSW 22:04:47 10° SE visible
15 Dec - 23:57:44 10° W 00:11:03 19° SW 00:26:01 10° S visible
16 Dec - 15:28:36 10° SSW 15:35:40 28° SE 15:47:15 10° E daylight
16 Dec - 17:50:38 10° WSW 18:01:05 48° S 18:20:14 10° ESE visible
16 Dec - 20:15:12 10° W 20:29:12 45° SSW 20:51:30 10° SE visible
16 Dec - 22:43:00 10° W 22:58:05 27° SW 23:17:02 10° S visible
17 Dec - 14:20:40 10° S 14:25:19 16° SE 14:31:34 10° ESE daylight
17 Dec - 16:40:41 10° SW 16:49:18 41° SSE 17:05:02 10° E visible
17 Dec - 19:04:14 10° WSW 19:16:14 48° S 19:37:14 10° ESE visible
17 Dec - 21:30:13 10° W 21:44:55 35° SSW 22:05:43 10° SSE visible
18 Dec - 00:03:49 10° WSW 00:13:07 14° SW 00:23:20 10° SSW visible
18 Dec - 15:31:17 10° SSW 15:38:14 31° SSE 15:49:58 10° E daylight
18 Dec - 17:53:45 10° WSW 18:03:50 47° S 18:22:23 10° ESE visible
18 Dec - 20:18:30 10° W 20:31:47 41° SSW 20:52:53 10° SE visible
18 Dec - 22:47:14 10° W 23:00:20 22° SW 23:16:34 10° S visible
19 Dec - 14:22:47 10° S 14:27:46 19° SE 14:34:58 10° E daylight
19 Dec - 16:43:43 10° SW 16:52:03 42° SSE 17:07:25 10° ESE visible
19 Dec - 19:07:29 10° WSW 19:18:58 44° S 19:38:58 10° SE visible
19 Dec - 21:33:53 10° W 21:47:22 29° SSW 22:06:10 10° SSE visible
20 Dec - 15:34:09 10° SW 15:40:55 33° SSE 15:52:38 10° E daylight
20 Dec - 17:56:57 10° WSW 18:06:39 45° S 18:24:26 10° ESE visible
20 Dec - 20:21:57 10° W 20:34:25 35° SSW 20:53:57 10° SSE visible
20 Dec - 22:52:26 10° WSW 23:02:40 16° SW 23:14:50 10° SSW visible
21 Dec - 14:25:13 10° SSW 14:30:22 22° SE 14:38:05 10° E daylight
21 Dec - 16:46:51 10° WSW 16:54:54 42° S 17:09:43 10° ESE visible
21 Dec - 19:10:49 10° WSW 19:21:45 40° SSW 19:40:29 10° SE visible
21 Dec - 21:37:58 10° WSW 21:49:52 23° SSW 22:06:00 10° S visible
22 Dec - 13:18:08 10° SSE 13:20:14 12° SE 13:22:38 10° ESE daylight
22 Dec - 15:37:08 10° SW 15:43:43 35° SSE 15:55:12 10° ESE daylight
22 Dec - 18:00:14 10° WSW 18:09:31 42° S 18:26:20 10° SE visible
22 Dec - 20:25:36 10° WSW 20:37:06 29° SSW 20:54:35 10° SSE visible
22 Dec - 23:00:59 10° SW 23:05:04 11° SW 23:09:27 10° SSW visible
